{"data":{"norad_id":43698,"intl_designator":"2018-089A","name":"GSAT-29","alt_names":[],"object_type":"PAYLOAD","status":"ACTIVE","operator":null,"country":"IND","launch_date":"2018-11-14","launch_site_code":"SRILR","launch_vehicle":null,"mission":null,"orbit_class":"UNKNOWN","rcs_meters":null,"size_class":null,"mass_kg":null,"dimensions":null,"purposes":["comms"],"wikipedia_slug":null,"has_3d_model":false,"image_url":null,"decayed_at":null,"tle_current":{"epoch":"2026-05-25T04:00:15.763104Z","epoch_age_seconds":54484,"freshness":"FRESH","line1":"1 43698U 18089A   26145.16684911  .00000000  00000+0  00000+0 0  9998","line2":"2 43698   0.0113 279.6705 0003495 135.3135 302.9192  1.00273668 27553","mean_motion":1.00273668,"eccentricity":0.0003495,"inclination_deg":0.0113,"raan_deg":279.6705,"arg_perigee_deg":135.3135,"mean_anomaly_deg":302.9192,"bstar":0,"rev_number":2755,"period_min":1436.0699361272,"perigee_km":35771.330706865,"apogee_km":35800.803485528,"semimajor_km":42164.204096196,"source":"CELESTRAK","updated_at":"2026-05-25T13:38:14.058103Z"}}}